sat.trackr.live / text

‹ back to catalog

ONEWEB-0169

NORAD 48077 · 2021-025AM

PAYLOAD ACTIVE UNKNOWN

§ Identity

Operator
Country
UK
Launch date
2021-03-25
Launch site
VOSTO
Launch vehicle
Mass (kg)
RCS (m²)

Purposes: comms

External: N2YO · Heavens-Above · Gunter

§ Orbital elements

Epoch: 2026-09-19T20:57:00.853056Z

Period
109.63 min
Inclination
87.8922°
Eccentricity
0.0001854
Mean motion
13.13468299 rev/d
Perigee alt
1,208.4 km
Apogee alt
1,211.2 km
Semi-major
7,587.9 km
B*
8.7836e-4
RAAN
301.3859°
Arg perigee
98.7080°
Mean anomaly
261.4259°
Rev number
26,473

§ Raw data

ONEWEB-01691 48077U 21025AM  26262.87292654  .00000334  00000+0  87836-3 0  99912 48077  87.8922 301.3859 0001854  98.7080 261.4259 13.13468299264730

JSON: /api/v1/satellites/48077 · /tle

For live sub-satellite position, see the globe view (requires WebGL).

§ Visibility from observer

Set your observer location to see the next 7 days of passes ≥ 10°. The values pass through the URL so the page stays shareable.

No JS? Fill the form by hand. The geolocation button needs JavaScript.